User: anonymous   Login
Location: Assche-ter-Heiden
(50.9174°N, 4.1574°E)
Time: 15:17:03
(UTC+00:00)
Language:

USA 32 - Orbit

View from above orbital plane
View from above orbital plane
View from above satellite
View from above satellite

Ground track
Ground track

The orbit data is extracted from the following two-line orbital elements,

1 19460U 88078A   20082.88613007 0.00000000  00000-0  00000-0 0    09
2 19460  84.9927 355.9203 0003998 222.8384 137.1615 14.33490066    06
Epoch (UTC): 22 March 2020 21:16:01
Eccentricity: 0.0003998
inclination: 84.9927°
perigee height: 777 km
apogee height: 783 km
right ascension of ascending node: 355.9203°
argument of perigee: 222.8384°
revolutions per day: 14.33490066
mean anomaly at epoch: 137.1615°
orbit number at epoch: 0

The dashed part of the orbit path shows where the satellite is in the earth's shadow,  

DLR